Location: Bercimuel
(41.3983°N, 3.5711°W)
Time: 10:28:43
(UTC+00:00)

Okean-O - Pass Details

Date: 15 May 2026
Orbit: 627 x 629 km, 97.9° (Epoch: 5 June)

Event Time Altitude Azimuth Distance (km) Brightness Sun altitude
Exits shadow 20:14:53 11° 119° (ESE) 1,938 4.4 -8.6°
Maximum altitude 20:18:11 24° 67° (ENE) 1,303 3.9 -9.1°
Drops below altitude 10° 20:21:42 10° 14° (NNE) 2,013 5.5 -9.7°
Sets 20:24:13 0° 1° (N) 2,925 6.6 -10.1°
